Wind_Speed
59 55 51 48 46 46 48 51 54 57 60 63 66 69 71 73 74 76 77 79 80 80 79 78 78 78 78 79 79 78 78 77 76 74 71 68 67 66 65 62 57 51 48 50 52 53 53 55 57 60 64 69 75 81 87 92 98 104 111 119 125 131 135 136 137 140 143 145 147 147 145 142 141 141 143 144 144 146 147 149 150 150 149 148 146
51 47 45 45 46 48 51 54 57 60 63 66 68 71 73 74 76 77 78 79 80 80 80 78 78 78 78 78 78 78 78 77 76 74 71 68 65 63 63 62 57 52 47 46 49 52 52 53 55 57 61 66 71 76 82 88 93 98 104 112 119 126 131 134 136 138 141 144 147 148 147 145 143 141 141 143 144 145 147 149 150 151 151 151 149
44 43 43 46 48 51 55 58 61 64 66 69 71 73 74 76 78 79 79 80 80 81 80 79 78 78 78 77 78 77 77 77 76 74 71 67 65 63 61 61 58 53 47 44 45 49 50 52 54 55 58 62 67 72 77 83 89 94 99 105 113 120 127 132 135 137 139 142 146 148 149 147 145 142 140 142 143 146 148 149 150 151 151 151 150
43 44 46 49 52 55 58 61 65 67 70 72 73 75 76 78 79 80 80 80 81 81 81 80 79 78 78 77 77 77 77 77 76 74 72 68 64 62 60 59 59 55 49 44 42 44 48 50 52 54 56 59 63 68 73 78 84 90 95 100 107 114 121 127 133 136 138 140 144 148 149 148 147 144 141 141 143 146 149 150 151 151 151 150 151
46 48 50 53 56 59 62 65 68 70 72 74 76 78 79 80 80 80 80 81 81 81 81 81 80 79 78 78 77 77 76 76 76 74 72 69 65 62 59 58 58 56 51 45 41 41 44 47 49 52 54 56 60 64 69 74 80 86 91 97 102 108 115 122 128 134 138 140 142 146 149 149 148 145 142 141 142 145 149 151 152 151 151 151 151
50 52 54 57 60 62 65 67 69 72 74 76 78 79 80 80 80 80 81 81 81 81 82 81 81 80 79 79 78 77 76 75 75 73 71 68 64 61 59 57 56 56 53 49 43 39 40 44 47 50 53 55 57 61 65 70 76 82 87 93 98 103 109 116 123 130 136 139 142 144 147 149 149 147 145 143 142 144 147 150 152 153 153 153 153
54 56 58 61 63 65 67 69 71 73 75 77 78 79 80 80 81 82 82 83 82 81 82 82 82 82 81 80 79 78 77 76 74 73 71 67 63 61 58 56 55 55 54 51 46 40 38 40 43 47 51 54 55 58 62 66 71 77 83 89 94 100 105 111 117 124 131 137 141 143 145 148 149 149 147 145 145 145 145 148 151 153 154 154 155
58 60 62 64 66 67 69 71 72 74 75 76 77 78 80 82 83 85 85 85 84 83 82 83 83 83 82 81 80 79 77 76 75 74 72 68 64 60 57 55 53 53 53 52 49 44 39 38 40 44 48 51 54 56 59 63 68 73 79 85 91 96 101 106 112 119 125 132 138 142 145 146 148 150 150 148 147 147 146 147 149 152 154 155 156
60 62 64 66 68 69 71 73 74 75 75 76 78 80 82 84 86 87 88 88 87 85 84 84 84 84 83 82 81 80 78 76 75 74 72 69 65 61 58 54 52 52 52 52 50 47 42 38 37 40 45 49 52 55 57 61 65 70 75 81 87 93 98 103 108 114 120 126 133 138 143 146 147 149 151 150 149 149 149 148 149 150 152 155 157
62 64 66 68 70 71 73 74 76 76 77 78 80 82 84 86 89 90 90 90 90 89 87 85 84 84 84 83 82 81 79 77 75 74 72 69 65 62 59 55 52 50 50 50 50 48 45 41 37 37 41 45 50 53 56 59 62 66 71 77 83 89 94 100 105 110 115 120 127 133 139 144 147 148 150 152 152 151 151 151 150 151 152 153 156
64 65 67 69 71 73 74 76 78 79 80 82 83 85 87 89 91 93 92 92 93 93 90 87 84 84 84 83 82 81 80 77 75 74 72 70 66 62 59 56 52 50 48 48 48 48 46 44 40 37 38 41 46 51 54 58 60 63 68 73 78 84 91 96 101 107 111 116 121 127 133 140 144 147 149 151 153 153 153 153 152 151 152 153 155
66 67 68 70 72 75 77 79 81 83 84 86 87 88 90 92 93 94 94 95 95 95 92 88 85 84 84 84 82 81 80 78 76 74 72 70 67 63 60 57 53 50 48 47 47 46 45 44 43 40 37 38 42 47 52 55 59 62 64 69 74 80 86 92 98 103 108 112 117 121 127 134 140 145 148 150 152 154 154 155 155 153 152 153 154
68 69 70 72 75 77 80 82 83 85 87 89 90 91 93 94 95 96 97 97 97 95 92 89 87 85 84 84 82 80 79 78 76 74 72 70 67 63 61 57 54 50 48 47 46 45 45 43 43 42 40 38 39 43 48 52 56 60 63 65 70 75 81 87 93 99 104 109 113 117 122 127 134 140 145 148 151 153 154 156 157 156 154 153 155
70 73 74 76 78 80 82 84 85 87 89 91 93 94 96 97 97 98 99 99 98 96 93 90 88 86 83 83 82 80 79 77 76 74 72 70 68 64 61 58 54 50 47 46 46 45 44 43 42 42 42 40 39 40 44 49 53 57 61 64 66 70 76 82 87 93 99 105 109 113 117 122 127 133 140 145 149 152 154 155 157 158 156 155 156
73 76 78 79 81 83 84 85 87 89 91 93 95 96 98 99 100 101 102 101 99 97 94 91 89 87 84 82 81 80 78 77 75 73 72 70 68 65 61 58 55 51 47 45 45 44 44 43 41 41 41 41 40 40 41 45 50 54 58 61 64 67 71 76 82 87 93 99 104 109 113 117 122 127 133 140 146 150 153 154 156 158 159 157 157
76 78 80 82 83 84 86 87 89 91 93 95 97 98 100 101 102 103 103 102 101 98 96 92 89 87 85 82 80 79 77 76 74 73 71 70 68 65 62 59 56 52 47 44 44 44 43 43 41 39 40 41 41 41 41 42 46 51 55 58 62 65 68 72 77 82 87 93 98 104 109 113 117 122 126 132 139 145 150 153 155 157 159 160 159
78 80 82 83 85 86 88 90 92 93 95 97 99 100 102 104 105 105 105 104 103 101 97 93 90 87 85 83 80 78 76 75 74 72 71 69 68 65 63 59 56 53 49 45 43 43 42 42 41 39 38 40 41 41 41 42 44 47 51 55 59 62 66 69 72 77 82 87 92 97 103 108 113 117 121 126 132 138 145 150 154 156 159 161 161
81 83 84 86 87 89 90 92 94 96 98 99 101 103 104 105 106 107 107 106 105 103 99 95 91 88 86 84 80 77 75 74 73 71 70 69 67 65 63 60 57 54 51 46 43 43 42 42 42 40 37 37 39 40 41 42 43 45 48 52 56 59 63 66 69 73 77 82 86 91 97 102 107 112 116 120 125 131 138 144 151 155 158 160 162
85 86 88 89 91 92 94 95 97 99 100 102 103 105 106 107 108 108 108 108 107 104 102 98 94 90 87 84 81 77 74 73 72 71 70 69 67 65 63 60 57 54 51 48 44 43 42 42 42 41 38 37 37 39 40 40 42 44 46 49 53 56 59 63 66 69 73 77 81 86 91 96 101 105 110 115 119 124 130 137 144 150 156 159 161
88 90 91 92 94 95 96 97 99 100 102 104 106 107 108 109 109 110 110 109 108 106 104 101 97 92 88 84 81 77 74 73 71 70 69 68 67 65 63 60 57 54 52 48 45 44 42 41 41 41 39 37 36 37 39 40 40 42 44 47 50 54 56 59 63 66 70 73 77 81 85 90 95 99 104 109 114 119 124 130 136 143 150 156 160
92 93 94 96 97 97 98 99 101 102 104 105 107 108 109 110 111 111 111 111 110 107 105 103 99 94 89 85 81 78 74 73 71 69 68 68 67 65 63 61 57 54 51 49 45 44 43 41 41 41 40 38 37 36 38 39 39 40 42 44 47 51 54 56 59 63 67 70 73 76 80 85 89 93 98 103 108 114 119 124 130 136 143 150 156
95 96 97 98 99 100 101 102 103 104 105 106 107 108 110 111 112 113 113 113 112 110 108 105 101 95 90 85 81 78 75 73 71 70 68 67 66 65 63 61 58 54 51 49 46 44 43 41 41 41 41 39 37 36 36 38 39 39 40 43 45 47 51 55 57 59 63 66 70 73 76 79 84 88 92 97 103 108 114 119 124 129 135 142 149
96 98 99 100 101 102 103 104 105 106 106 107 109 110 111 113 114 115 115 114 113 112 109 106 102 96 91 86 82 79 76 74 72 70 68 67 65 64 63 61 58 54 51 49 46 44 43 42 40 40 41 40 38 37 36 37 38 38 39 41 43 45 47 52 55 57 60 63 66 70 73 76 79 83 87 92 97 102 108 113 119 124 129 135 142
97 99 100 102 103 104 105 106 107 108 109 110 111 112 113 115 116 117 116 116 115 113 111 107 103 97 91 86 82 79 77 74 72 70 68 67 65 63 62 61 58 54 52 49 46 44 43 41 40 40 41 41 39 38 36 36 36 37 38 39 41 43 45 48 52 55 57 60 63 66 70 73 75 78 82 86 91 96 101 107 113 118 123 128 134
98 100 102 103 104 106 107 109 110 111 112 113 114 115 115 116 118 118 117 117 115 113 111 108 103 97 91 86 82 80 78 75 72 70 68 66 65 63 62 60 58 54 51 49 46 44 42 41 40 40 40 40 40 39 37 36 36 36 37 39 40 42 43 45 48 52 55 57 60 63 66 70 73 75 78 82 86 90 96 101 106 112 117 122 127
101 102 103 105 106 108 110 111 112 114 115 115 116 117 117 118 119 119 118 117 115 113 111 107 103 97 91 86 83 81 79 76 72 70 68 66 64 63 61 60 57 54 51 49 46 44 42 41 40 39 39 40 40 40 38 37 36 35 36 38 39 40 43 44 45 48 52 55 57 60 63 67 70 72 75 78 82 86 90 95 101 106 111 116 121
104 105 107 108 109 110 112 113 115 116 116 117 118 118 119 120 120 120 119 118 115 113 110 106 102 97 91 86 83 81 79 76 73 70 68 66 64 62 61 59 57 54 51 49 47 44 42 41 39 39 39 39 39 40 39 38 37 35 35 37 38 39 41 43 43 45 48 52 55 58 61 64 67 70 73 75 78 82 86 90 95 100 105 110 115
106 107 109 110 111 112 113 114 116 116 117 118 119 119 120 121 121 121 120 118 115 112 108 104 100 96 91 86 83 82 80 76 72 70 67 65 63 61 60 58 56 53 51 49 47 44 42 41 39 38 39 39 39 39 39 39 38 36 35 36 37 38 39 42 43 43 45 48 52 55 59 61 65 68 70 73 76 79 82 86 90 94 99 104 109
107 109 110 112 113 114 115 116 117 117 118 119 119 120 121 122 122 122 120 117 114 111 107 102 98 94 90 86 83 81 80 76 72 69 66 64 62 60 59 57 55 53 50 48 47 45 43 41 39 38 38 38 39 39 39 39 39 37 36 35 36 37 38 39 42 43 43 45 48 52 56 59 62 65 68 71 74 76 79 82 85 89 93 98 103
109 111 112 114 115 116 117 118 118 119 119 120 120 121 122 122 123 122 120 117 113 109 104 100 97 92 89 85 82 81 79 75 71 68 66 63 61 59 57 56 54 52 50 48 46 45 43 42 40 38 38 38 38 38 38 39 40 38 37 36 36 37 37 37 40 43 43 43 45 49 53 56 59 62 65 68 71 74 77 79 82 85 89 93 98
112 113 114 116 117 118 119 120 120 121 121 121 121 122 122 123 123 122 119 116 111 106 102 98 95 91 87 84 82 81 78 74 70 67 64 62 60 58 56 54 53 51 50 48 46 45 44 42 41 38 37 38 38 38 38 38 40 40 37 36 36 37 37 36 37 41 43 43 43 45 49 53 57 60 62 65 68 71 74 77 79 82 85 89 93
115 116 117 118 118 119 120 121 122 122 122 122 122 122 123 123 123 121 118 114 109 104 100 96 93 90 87 84 82 81 78 73 69 66 63 61 59 57 55 53 51 50 49 48 46 45 44 43 41 39 37 37 38 38 37 37 39 40 39 37 36 37 38 37 36 38 41 43 43 44 46 49 54 57 60 62 65 68 71 74 77 79 82 85 88
118 119 120 121 121 122 123 123 124 123 123 123 123 123 123 123 122 120 116 111 106 102 98 94 91 89 86 84 82 80 77 72 68 64 61 59 58 56 54 52 50 49 48 48 46 45 44 43 42 39 37 37 37 37 37 37 39 40 40 38 36 36 38 38 36 36 38 42 43 44 44 46 49 54 57 60 62 65 68 71 74 77 79 82 85
121 122 123 123 123 124 124 125 125 125 124 124 124 123 123 122 121 117 113 108 103 98 95 92 89 87 85 83 81 79 76 71 67 62 59 58 56 55 53 52 50 48 47 47 46 45 45 44 42 40 37 36 37 37 36 36 38 39 40 39 37 36 37 38 38 36 36 39 41 43 44 45 46 49 54 58 60 62 65 68 70 73 75 78 81
123 124 124 125 125 125 125 126 126 126 125 124 123 123 122 120 118 114 110 105 99 95 92 90 87 85 84 82 80 78 74 70 66 62 58 57 55 54 52 51 49 47 47 46 46 46 45 44 42 40 38 36 36 37 36 36 37 39 40 40 39 37 37 37 38 37 37 37 39 41 42 44 45 47 50 54 57 60 62 65 67 70 72 75 77
127 127 127 127 127 127 128 128 128 128 126 125 123 122 120 117 114 110 105 101 96 93 90 87 85 84 82 81 79 76 73 69 65 61 58 56 55 53 52 50 48 46 46 46 46 45 45 45 43 41 38 36 36 37 36 36 37 38 39 40 39 38 38 37 37 37 37 37 37 39 41 42 44 45 47 50 54 57 60 62 64 67 69 72 74
130 130 130 130 130 130 130 130 130 130 128 126 123 120 117 113 109 105 101 97 94 92 89 85 83 82 81 80 77 74 71 68 64 60 57 56 54 53 51 49 47 45 44 45 45 45 45 45 43 41 39 36 35 36 36 36 36 37 38 39 39 39 39 38 37 37 37 37 37 38 39 40 41 43 45 47 50 53 56 59 61 64 67 69 71
132 132 132 132 131 131 130 131 131 130 129 126 122 117 113 108 103 100 97 94 92 91 88 84 81 80 80 78 76 72 70 67 63 59 57 55 54 52 51 49 47 44 43 43 44 44 44 44 43 42 40 36 35 36 36 35 36 37 38 38 39 39 39 39 38 37 37 38 38 37 38 39 40 41 43 45 47 50 53 55 58 61 64 66 67
132 133 132 132 131 130 130 130 131 130 127 123 118 113 108 104 99 96 93 91 90 90 87 83 79 78 78 77 74 71 68 65 62 58 56 54 53 52 50 49 46 44 42 42 43 43 43 44 43 42 40 38 36 35 36 36 36 37 37 38 38 39 39 39 39 38 36 37 38 37 37 37 39 40 41 43 45 48 50 52 55 57 60 62 63
133 134 133 132 131 130 130 130 129 126 123 118 113 108 105 101 97 93 91 89 89 88 86 82 78 76 77 75 72 69 67 64 61 58 55 53 52 50 49 48 46 44 42 41 42 42 42 43 43 42 41 39 37 36 36 36 36 36 37 37 38 38 39 39 39 39 37 36 37 37 36 36 38 39 40 41 42 45 47 50 52 54 56 57 60
134 134 134 133 131 130 129 128 126 123 119 114 109 106 103 100 97 93 89 87 87 87 85 80 76 75 75 73 70 67 65 62 60 56 54 52 51 49 48 47 45 43 42 41 41 41 41 42 42 42 41 39 37 36 36 36 36 36 37 38 37 37 38 39 39 40 39 37 36 36 36 36 37 39 39 39 40 42 45 47 49 51 52 54 58
134 134 134 133 131 128 127 125 122 119 116 112 108 105 102 99 96 91 88 86 85 85 83 78 74 73 73 71 68 65 63 61 58 55 53 51 50 48 46 45 44 43 42 41 40 40 40 41 42 42 41 40 38 37 36 36 36 37 37 38 38 37 37 38 39 39 39 38 36 35 35 35 37 38 39 39 39 40 42 44 47 49 50 51 54
135 134 133 131 129 126 123 120 118 116 113 110 106 103 100 97 93 89 85 83 82 82 80 76 72 71 70 68 65 63 61 59 56 54 52 50 48 46 45 43 42 42 41 41 40 39 39 40 41 41 42 41 39 37 36 36 36 37 37 38 38 37 37 38 38 38 39 39 37 36 34 34 36 37 38 39 39 39 40 41 44 46 48 49 51
134 133 132 129 126 122 118 115 114 112 110 107 103 100 97 93 89 85 83 81 80 79 77 73 70 69 68 66 63 61 59 57 54 52 50 48 47 45 43 42 41 41 40 40 39 39 39 39 40 41 42 41 40 38 37 36 36 37 37 37 38 38 37 37 38 38 38 38 38 36 35 34 34 36 38 38 39 39 38 39 41 43 46 47 48
134 132 130 126 122 118 114 111 109 109 107 103 99 96 93 90 86 82 80 79 78 76 74 70 68 66 65 63 60 58 57 55 52 50 49 47 45 44 42 41 40 40 40 40 39 38 38 38 39 40 41 42 41 39 38 37 37 37 37 37 37 37 37 37 37 37 37 37 37 36 35 34 34 34 36 38 39 39 38 38 39 40 43 45 47
131 128 124 120 116 112 109 106 105 104 103 100 97 93 90 86 82 79 78 77 75 73 71 67 65 64 62 60 58 56 55 53 50 49 47 46 44 43 41 39 38 38 39 39 39 38 38 38 38 39 40 41 41 40 39 39 38 37 37 38 38 37 37 37 37 37 37 37 37 36 35 34 33 33 35 36 38 39 39 38 37 38 40 42 44
126 121 117 113 110 107 105 103 101 100 98 96 93 90 87 83 79 77 75 74 73 71 68 65 63 62 60 58 56 54 53 51 49 47 46 46 44 42 41 39 38 37 38 38 38 38 37 37 38 39 40 40 41 41 40 40 39 38 38 38 38 38 37 37 36 36 36 36 36 36 35 34 34 33 33 35 36 38 38 38 37 37 38 40 42
119 114 111 109 107 104 102 99 96 95 93 91 90 87 83 79 77 75 73 71 70 68 66 63 62 60 58 56 54 52 51 50 47 46 45 45 43 42 40 39 38 37 37 38 38 38 37 37 38 39 39 40 41 41 41 40 40 39 38 38 38 38 37 36 36 36 35 35 34 35 35 34 34 33 33 33 34 36 37 37 37 37 37 37 39
116 112 110 108 106 103 99 95 92 91 89 87 86 83 79 76 74 72 71 69 67 65 63 61 59 58 56 54 52 51 50 49 46 45 45 44 43 41 40 39 38 37 37 38 38 38 37 37 38 38 39 40 41 41 40 40 40 40 39 39 39 38 37 36 35 35 35 34 33 34 34 34 34 33 33 33 33 34 35 36 36 36 36 36 37
116 113 111 108 105 101 97 93 90 88 86 85 83 79 76 73 72 70 68 66 64 63 61 59 57 56 54 52 50 49 48 47 46 45 44 44 43 41 40 39 38 38 38 38 38 38 38 37 37 38 39 40 40 41 40 40 40 40 40 40 39 39 38 37 36 35 34 33 32 32 33 33 33 33 33 33 32 32 33 34 35 35 36 36 36
115 112 109 106 103 99 95 91 88 86 84 82 80 76 73 70 69 68 66 64 62 60 58 57 56 54 52 50 48 47 47 46 46 45 44 43 42 41 40 39 38 38 38 38 38 38 38 38 38 38 39 39 40 40 40 40 39 39 39 40 39 39 38 38 37 35 34 33 32 31 32 32 33 33 32 32 32 32 32 33 34 34 35 35 36
Wind_Direction
318 319 319 319 319 318 316 314 313 313 313 314 315 316 317 318 318 318 317 316 316 316 316 317 317 317 316 316 315 315 316 316 316 317 317 317 316 315 313 310 307 303 297 290 285 278 271 263 256 250 246 242 239 238 237 236 235 233 231 231 231 231 231 231 230 229 229 230 230 232 232 232 230 229 230 230 229 229 228 228 227 228 229 230 231
322 322 322 321 320 318 316 315 314 314 315 316 317 318 318 318 318 318 317 317 317 317 317 318 317 317 317 316 316 316 317 317 318 318 318 318 317 316 314 311 308 304 298 291 285 280 274 266 259 252 247 244 241 238 237 236 235 234 232 231 231 231 231 231 231 230 229 230 230 231 231 232 231 230 229 230 230 230 230 229 229 228 228 229 230
326 325 324 322 320 318 317 316 316 316 317 318 319 319 319 319 319 318 318 319 319 319 319 318 318 317 317 317 317 317 318 318 318 318 319 319 318 318 316 312 309 306 301 293 285 280 275 269 262 255 249 245 242 240 238 236 235 234 233 231 230 230 230 231 231 230 230 230 230 231 231 231 231 230 229 229 230 231 231 231 230 230 229 228 229
327 325 323 321 320 318 318 318 318 319 320 320 320 320 320 320 320 320 320 321 321 320 320 319 319 318 318 318 318 318 318 319 319 319 319 319 319 319 317 314 310 307 303 297 288 281 276 271 265 259 252 247 244 241 238 237 236 234 233 232 231 230 230 230 230 231 230 230 230 230 231 231 231 230 229 228 229 230 231 232 232 231 231 230 229
326 324 322 321 319 319 319 320 321 322 322 321 321 321 321 321 321 322 322 323 323 322 321 320 320 319 319 318 318 318 319 319 319 319 319 320 320 320 318 315 312 309 305 300 292 283 277 272 266 261 256 250 246 243 240 238 236 235 234 233 231 230 229 229 229 230 230 230 230 230 231 231 231 230 229 228 228 229 230 231 232 232 232 232 231
324 322 321 321 320 321 322 323 323 323 322 322 322 322 322 323 324 324 325 325 325 324 323 322 322 321 320 319 319 319 319 319 319 319 319 319 319 320 319 317 313 310 307 303 297 288 279 273 268 263 259 254 249 245 242 239 237 235 234 233 232 231 230 229 229 229 229 230 230 230 230 231 231 231 230 229 228 228 229 230 231 232 232 232 232
323 322 322 322 323 324 324 324 323 323 322 323 323 323 324 325 326 327 327 327 326 326 325 325 324 323 322 321 320 320 319 319 319 319 319 319 319 320 320 318 314 311 308 305 300 292 283 274 269 264 260 257 252 247 244 242 238 236 235 233 233 232 231 230 229 229 229 229 229 230 230 230 231 231 230 229 228 228 228 229 230 231 232 233 233
323 323 324 324 325 324 324 323 323 323 323 324 325 326 327 328 328 328 329 329 328 328 328 327 326 324 323 322 321 320 320 320 320 319 319 319 320 320 320 319 316 312 309 306 302 297 288 278 270 265 261 258 255 251 246 244 241 237 235 234 233 232 232 232 230 229 229 229 229 229 229 230 230 231 231 230 229 228 228 228 229 230 231 232 233
325 325 326 325 325 324 324 324 324 324 326 327 328 328 329 330 330 330 330 330 330 330 330 329 327 326 324 323 322 321 321 321 320 320 320 320 320 320 321 320 317 313 310 307 304 300 293 283 273 267 262 259 256 254 250 246 243 240 236 234 233 233 232 232 232 231 229 229 229 229 229 229 229 230 230 230 230 229 229 228 228 229 230 231 233
326 327 326 325 325 325 325 326 326 328 329 330 330 331 331 331 331 331 331 332 332 331 331 330 328 327 325 324 323 322 321 321 321 320 320 320 320 321 321 320 318 314 310 308 305 302 297 290 280 270 264 260 257 255 253 249 245 242 239 236 234 233 232 232 232 232 231 230 229 229 229 229 229 229 229 230 230 229 230 229 228 228 229 230 231
328 327 326 326 326 327 328 329 330 331 332 332 332 332 332 332 332 331 332 332 333 332 331 330 329 328 326 325 324 323 322 321 321 320 320 320 320 321 320 320 319 315 311 308 305 303 299 294 287 277 267 261 258 255 254 252 249 245 241 238 235 233 233 232 232 232 232 231 230 229 229 229 229 228 228 229 229 229 229 230 229 228 228 229 230
328 327 327 328 329 330 331 332 332 333 333 333 333 333 332 332 332 332 332 333 333 332 331 331 330 329 327 326 324 323 322 322 321 321 320 320 320 321 320 320 320 317 312 308 306 303 300 297 291 284 274 265 259 256 254 253 251 249 245 241 238 235 233 233 232 232 232 232 232 230 229 229 229 229 228 228 228 229 229 230 230 229 228 228 229
328 328 330 331 332 333 333 333 333 333 333 333 333 333 333 332 333 333 333 333 332 332 332 331 331 330 328 326 324 324 323 322 321 321 321 320 320 321 320 320 320 318 313 309 306 304 301 297 293 289 282 273 263 258 255 253 252 250 248 245 241 237 235 234 233 232 232 232 232 232 231 229 229 229 229 228 228 228 228 229 229 229 228 228 229
330 331 332 333 334 334 334 334 334 334 333 333 333 333 333 333 333 333 333 332 332 332 332 332 331 330 328 327 325 324 323 322 322 321 321 320 320 320 320 319 319 318 314 310 307 304 301 298 294 290 286 280 271 262 256 254 252 251 249 248 244 240 237 235 234 233 233 233 232 232 232 231 230 229 229 228 228 228 228 228 229 229 229 228 229
332 333 334 334 334 334 334 334 334 334 334 333 333 333 333 333 333 333 332 332 332 332 332 332 332 330 329 328 326 325 324 323 322 322 321 320 320 320 320 319 318 318 315 310 307 305 302 299 296 292 288 284 278 270 261 255 253 252 250 248 247 244 240 237 236 234 234 233 233 232 232 231 231 230 229 229 228 228 228 228 228 228 229 228 228
334 334 335 335 334 334 334 334 334 334 334 333 333 333 333 333 333 332 332 332 332 333 333 332 332 331 330 328 327 325 324 323 322 322 321 320 320 320 320 319 318 317 315 310 307 305 302 299 296 293 289 286 282 277 269 260 254 252 251 249 248 246 244 240 238 236 234 234 234 233 233 232 231 231 230 230 229 228 228 228 228 228 228 228 228
334 335 335 334 334 334 334 334 334 334 333 333 333 333 333 333 333 332 332 332 333 333 333 333 332 332 330 329 327 326 324 323 322 321 320 320 319 319 319 319 318 317 315 311 307 305 302 299 297 293 290 287 284 280 275 268 260 254 252 250 248 247 246 244 240 238 236 235 234 233 233 233 232 231 231 230 230 230 229 228 228 228 228 228 228
335 335 335 335 334 334 334 334 334 333 333 332 333 333 333 333 332 332 332 332 333 333 333 333 333 332 331 329 328 326 324 323 322 321 320 319 318 318 318 318 318 317 315 311 308 305 302 300 297 294 291 287 285 282 278 273 267 260 255 252 250 248 246 245 244 241 238 236 235 234 233 233 233 232 231 230 230 230 230 229 228 228 228 228 228
335 335 335 335 334 334 334 334 333 333 332 332 333 333 332 332 331 332 332 332 332 333 333 333 333 332 331 330 328 326 324 322 321 320 319 318 318 318 318 318 317 316 314 311 308 306 303 301 298 296 293 289 285 283 280 275 270 264 259 255 253 250 247 245 245 243 241 238 236 234 234 233 233 233 231 231 230 230 230 230 229 228 228 228 228
335 335 335 335 334 334 334 333 333 332 332 332 332 332 331 331 331 332 332 332 332 333 333 333 333 332 331 330 328 326 324 322 321 320 319 318 317 317 317 317 317 316 314 311 308 306 304 302 299 297 294 291 287 284 282 278 273 267 262 257 254 253 250 247 245 244 243 241 238 236 234 234 233 233 232 231 231 230 230 230 230 229 229 228 228
335 335 335 334 334 333 333 332 332 332 332 332 331 331 330 331 331 331 332 332 332 333 333 333 332 332 331 330 328 326 324 322 321 320 318 317 316 316 316 316 316 315 313 311 308 306 305 303 301 299 296 293 290 286 284 281 276 271 265 260 256 254 253 250 247 245 244 243 241 238 236 234 234 233 232 232 231 231 230 230 230 230 230 229 229
334 334 334 333 333 332 332 332 331 331 331 330 330 330 330 331 331 331 331 331 332 333 333 333 332 331 330 329 327 326 324 323 322 320 318 317 316 315 315 315 315 315 313 310 308 306 305 303 302 300 298 295 292 289 286 283 280 275 269 264 258 254 253 252 250 246 244 243 242 241 238 236 234 233 232 232 231 231 231 230 230 230 230 230 229
333 333 332 332 332 331 331 330 330 330 330 330 330 330 331 331 331 330 331 331 332 332 333 332 331 330 330 329 327 325 325 324 322 320 318 316 315 314 313 314 314 314 313 310 307 306 305 304 302 301 298 297 295 291 288 285 282 279 273 268 262 257 253 253 252 249 246 244 243 242 241 238 236 234 233 232 232 232 231 231 231 230 230 230 230
332 332 331 331 331 330 329 329 329 329 329 329 330 330 331 331 330 330 330 331 331 332 332 331 330 329 329 328 326 325 325 324 323 321 318 316 315 313 313 313 314 314 312 310 307 305 305 304 303 301 299 298 296 293 291 288 285 282 277 272 267 261 256 253 252 251 248 246 243 242 241 240 238 235 234 233 232 232 232 232 231 231 231 230 230
331 331 330 330 329 329 328 328 328 329 329 329 330 330 330 330 329 329 330 330 331 331 331 330 329 328 328 327 326 326 325 324 323 321 318 316 315 313 312 312 313 313 312 309 307 305 305 304 303 302 300 298 297 295 293 290 287 284 280 275 270 265 260 254 252 251 250 247 245 243 242 241 240 237 235 234 233 232 232 232 232 232 231 231 231
330 330 329 329 328 328 327 328 328 328 329 329 329 329 329 329 328 328 329 329 330 330 330 329 328 327 327 327 326 326 325 324 323 321 319 317 315 313 311 311 312 312 311 309 306 305 304 304 304 302 300 298 297 296 295 292 289 286 283 278 273 268 264 258 253 251 251 249 247 245 243 241 241 239 237 235 234 233 232 232 232 232 232 232 232
329 329 328 328 327 327 327 328 328 328 328 328 328 328 328 328 327 328 328 328 329 329 329 329 327 326 326 326 326 326 325 324 323 321 319 317 315 313 311 310 311 311 310 308 306 304 304 304 303 302 300 298 297 297 296 294 292 289 285 281 276 271 267 263 257 252 251 250 248 246 244 243 241 240 239 237 236 234 233 232 232 232 232 232 232
328 328 327 326 326 327 327 327 326 327 327 327 327 327 327 326 326 326 327 327 328 328 328 328 326 325 325 325 326 325 324 324 323 321 319 317 315 313 311 309 310 310 309 308 305 304 304 304 303 302 300 298 297 297 297 296 294 291 288 284 279 274 269 266 262 256 252 250 249 247 245 244 242 241 240 239 238 236 235 233 233 232 233 233 233
327 326 326 326 326 326 326 326 325 325 326 326 326 326 326 325 325 325 326 327 327 328 327 327 325 324 324 325 325 325 324 324 323 321 319 317 314 312 310 309 309 309 309 307 305 304 304 303 303 302 300 298 297 297 297 297 295 293 290 287 282 277 272 267 265 261 255 251 249 248 246 245 244 242 241 239 238 238 237 235 234 233 233 233 233
325 325 325 325 325 325 325 325 324 324 325 325 325 325 324 324 324 324 325 326 327 327 327 325 324 323 323 324 325 324 324 324 323 321 319 317 314 312 310 309 308 308 308 307 305 304 304 303 303 302 300 299 298 297 298 297 296 295 292 290 286 281 275 270 267 264 260 255 251 249 248 246 245 243 242 241 239 238 238 237 236 235 234 233 233
325 325 325 325 324 324 324 324 324 323 324 324 324 323 323 323 323 323 324 325 326 326 326 324 323 322 323 324 324 324 324 323 322 320 318 316 314 311 310 309 308 308 307 306 305 304 303 303 303 302 300 299 298 297 298 298 297 296 294 292 289 285 279 273 268 266 263 259 254 250 248 247 246 244 243 242 241 239 238 238 237 236 235 234 234
324 324 324 324 324 323 323 323 323 323 323 323 323 322 322 322 322 323 324 324 325 325 325 323 322 322 322 323 323 323 323 323 322 320 318 316 313 311 310 308 307 307 306 306 305 304 303 303 302 302 300 299 297 297 297 298 297 296 295 293 291 288 283 277 270 267 265 263 259 254 250 247 246 245 244 243 242 241 239 238 237 237 237 236 235
324 324 323 323 323 322 322 322 322 322 322 322 322 322 321 321 322 322 323 324 324 324 323 322 321 321 321 322 323 323 322 322 321 319 317 315 313 311 309 308 307 306 305 305 304 303 303 302 302 301 300 299 297 296 297 298 297 297 296 295 293 290 286 282 275 269 265 264 262 259 254 249 246 245 245 244 243 242 241 240 238 238 237 237 237
323 323 322 322 322 321 321 321 321 321 321 321 321 321 321 321 321 322 323 323 323 323 322 321 320 320 321 322 322 322 321 321 320 318 316 314 312 310 309 307 306 305 304 304 303 302 302 301 301 301 300 299 297 296 297 297 297 297 296 296 294 292 288 284 280 274 268 264 262 261 258 255 250 245 244 244 243 243 242 241 240 239 238 238 238
322 321 321 321 321 320 320 320 320 320 320 320 320 321 321 321 321 322 322 322 322 322 321 320 320 319 320 321 321 321 320 320 318 316 315 313 311 310 308 306 305 304 303 303 302 302 301 301 300 300 300 299 297 296 296 297 297 297 296 296 296 294 290 286 282 278 273 268 264 262 259 258 255 250 245 243 242 242 242 242 241 241 240 239 238
321 321 320 320 320 320 320 320 320 320 320 320 321 321 321 321 321 321 322 322 322 321 320 319 319 319 319 319 320 320 319 319 317 315 314 312 311 309 307 306 305 304 302 302 301 301 301 300 300 300 299 299 297 296 297 297 297 297 296 296 296 295 293 289 285 281 277 272 267 263 261 259 257 255 251 246 242 241 242 241 241 241 241 240 239
320 320 320 320 320 320 320 319 319 319 319 320 321 321 321 321 321 321 321 321 321 319 319 319 319 318 318 318 319 319 318 317 316 314 313 312 310 309 307 305 304 303 302 300 300 300 300 299 299 299 299 299 298 297 297 297 297 297 297 297 296 296 294 291 288 284 279 275 270 266 263 261 259 257 255 251 246 242 241 241 241 240 240 240 240
319 319 319 319 319 319 318 318 318 318 319 319 320 321 320 321 321 321 321 321 320 318 317 318 318 318 317 317 318 318 317 316 314 313 313 311 310 309 307 305 304 302 301 300 299 299 299 299 299 299 299 299 298 297 297 297 297 297 297 297 297 296 295 292 289 286 282 278 274 270 266 263 260 258 257 255 251 246 242 240 240 240 240 240 240
318 318 317 318 318 318 318 318 318 318 318 319 320 320 320 320 321 321 320 320 318 316 316 316 317 317 316 316 317 317 316 315 313 312 312 311 310 308 307 305 303 302 301 299 299 299 299 298 299 299 300 300 299 298 298 298 298 298 298 298 297 297 295 294 291 288 284 280 277 273 269 266 263 260 257 255 254 251 247 242 240 240 240 239 239
317 317 317 317 318 318 318 318 318 318 318 319 320 320 320 320 320 320 319 319 317 315 314 315 316 316 315 315 316 316 315 313 312 312 312 310 309 308 306 304 303 302 300 299 298 298 298 298 299 299 299 300 300 299 298 299 299 299 299 298 298 297 296 294 292 290 286 282 279 276 273 269 265 262 260 257 255 254 251 247 243 241 240 239 238
317 317 318 318 319 319 318 318 318 319 319 319 320 320 319 319 319 318 318 317 315 313 313 314 316 315 314 314 315 315 314 312 311 311 311 310 308 307 305 304 302 301 300 299 298 298 298 298 298 299 299 299 300 299 299 299 299 299 299 299 298 297 296 294 293 291 288 284 281 278 275 272 268 265 263 259 256 254 253 250 247 244 241 239 239
317 317 318 319 319 319 319 319 319 318 318 319 319 319 318 318 317 317 317 316 314 312 312 314 315 314 313 313 314 313 312 311 310 310 310 309 307 306 304 303 302 301 300 299 299 299 298 298 298 298 298 299 299 299 299 300 300 300 300 299 299 298 296 295 293 292 290 287 283 279 276 273 271 268 265 262 259 256 253 252 250 247 244 241 240
318 318 319 319 319 319 319 319 318 318 318 318 318 318 317 316 316 316 316 314 313 311 311 313 314 313 312 312 313 312 311 310 309 309 310 309 307 305 304 302 301 300 299 299 298 298 298 298 298 298 298 298 299 299 299 300 300 300 300 300 299 299 298 296 293 292 290 288 285 282 278 275 273 270 268 265 262 259 256 253 251 249 247 245 242
319 319 319 319 319 320 319 319 318 317 316 317 317 316 316 315 315 315 315 313 312 311 311 313 313 312 311 312 312 311 310 309 308 308 309 308 306 304 302 302 301 299 298 298 298 298 297 297 297 297 297 298 299 299 300 300 300 299 299 300 300 300 299 297 294 292 290 288 286 283 280 277 274 272 270 267 265 262 258 255 253 251 249 248 246
320 319 319 319 319 319 319 318 317 317 316 316 316 315 315 314 314 315 314 312 311 311 311 312 312 311 310 311 310 310 308 307 307 307 307 307 305 303 301 301 300 299 298 298 297 297 297 297 297 297 297 298 299 299 300 300 300 300 300 300 300 300 299 298 295 293 290 288 286 284 282 279 276 273 271 268 266 264 262 258 255 253 251 249 248
320 319 319 319 319 318 318 318 317 316 316 315 315 315 314 314 315 315 313 312 311 311 311 312 311 310 310 310 309 308 307 306 306 306 306 305 304 302 301 300 299 299 298 297 297 297 297 296 296 296 296 297 298 300 300 300 300 300 300 300 301 301 300 298 296 294 291 289 287 285 283 280 277 274 272 269 267 265 264 262 259 255 253 250 249
319 319 319 319 319 319 318 318 317 316 315 315 315 314 314 315 315 314 313 311 311 311 311 312 311 310 309 309 309 307 306 305 305 305 304 304 303 302 301 300 299 298 297 297 296 296 296 296 295 295 295 297 298 299 300 300 301 301 301 301 301 301 300 299 297 295 293 290 287 285 283 281 279 276 273 270 267 265 265 264 262 259 256 253 250
320 320 320 320 320 320 319 318 317 316 316 315 314 314 315 316 315 314 312 311 311 311 311 311 310 309 309 309 308 306 305 304 303 303 303 303 302 302 301 300 299 298 297 297 296 296 295 295 295 295 296 297 298 299 300 300 301 301 301 301 301 300 300 299 297 296 294 291 288 286 284 282 280 277 274 271 268 265 264 263 263 261 258 255 253
322 322 322 322 321 320 319 319 318 317 316 316 315 315 316 316 315 313 311 311 311 311 311 311 310 309 309 308 307 305 304 303 303 302 301 302 302 301 301 300 299 298 297 296 296 295 295 295 295 295 296 297 297 298 299 300 300 301 301 301 301 300 300 299 298 296 295 292 289 286 284 282 281 279 276 273 270 267 264 263 262 262 261 258 255
323 323 323 322 321 321 320 320 320 318 317 317 316 316 317 316 314 313 312 311 311 311 311 310 309 309 308 307 306 304 303 303 302 301 301 301 301 301 301 301 300 299 297 296 295 295 294 294 294 294 295 296 297 297 298 299 300 300 300 300 300 300 299 299 298 297 295 293 291 288 285 283 281 279 278 276 273 270 266 264 262 262 262 260 258
323 323 323 322 321 321 321 321 320 319 318 317 317 317 318 317 314 313 312 311 311 311 311 310 309 308 307 306 305 304 303 302 301 300 300 300 301 301 301 301 300 299 297 296 295 294 294 294 293 293 294 294 295 296 297 298 298 299 299 299 299 299 299 299 299 298 296 294 292 290 287 285 282 280 279 277 276 273 270 266 263 261 261 260 260
Height
10493 10489 10484 10481 10478 10475 10471 10468 10464 10460 10455 10450 10445 10439 10432 10426 10419 10412 10405 10397 10389 10381 10373 10365 10356 10347 10338 10329 10321 10313 10306 10299 10292 10284 10277 10267 10258 10249 10242 10237 10233 10228 10224 10218 10213 10209 10207 10207 10209 10211 10213 10215 10218 10222 10226 10231 10237 10245 10251 10258 10264 10269 10276 10287 10299 10310 10317 10324 10329 10334 10341 10350 10361 10375 10387 10396 10407 10418 10425 10433 10440 10449 10458 10466 10475
10487 10483 10479 10475 10473 10470 10466 10463 10458 10454 10449 10444 10438 10432 10425 10418 10411 10404 10397 10388 10380 10371 10363 10355 10347 10338 10330 10321 10312 10303 10295 10288 10281 10274 10267 10259 10250 10242 10234 10228 10224 10220 10216 10211 10206 10201 10198 10197 10198 10200 10202 10204 10207 10210 10214 10219 10224 10231 10238 10245 10251 10257 10263 10271 10282 10293 10302 10309 10314 10320 10326 10332 10342 10356 10370 10380 10392 10403 10411 10418 10425 10431 10440 10449 10459
10482 10479 10475 10471 10468 10465 10461 10457 10452 10448 10442 10437 10431 10424 10417 10410 10402 10395 10387 10379 10370 10361 10353 10345 10337 10329 10321 10313 10303 10295 10286 10278 10271 10264 10257 10250 10242 10234 10226 10219 10215 10211 10208 10204 10199 10194 10190 10188 10187 10189 10191 10193 10195 10199 10203 10207 10211 10216 10223 10230 10237 10244 10250 10257 10266 10275 10284 10293 10300 10305 10309 10316 10325 10337 10351 10364 10375 10386 10395 10402 10409 10417 10425 10435 10445
10478 10475 10472 10468 10464 10460 10456 10451 10446 10440 10435 10429 10422 10415 10408 10401 10394 10386 10378 10370 10361 10352 10343 10335 10328 10320 10312 10304 10295 10286 10278 10269 10261 10255 10248 10241 10234 10226 10218 10211 10205 10202 10198 10195 10192 10187 10183 10179 10178 10178 10180 10182 10184 10188 10191 10195 10199 10204 10209 10215 10221 10228 10235 10243 10250 10257 10265 10276 10284 10288 10293 10301 10309 10318 10332 10346 10357 10369 10377 10384 10394 10404 10412 10420 10429
10475 10471 10468 10464 10460 10455 10450 10445 10439 10433 10427 10420 10413 10407 10399 10392 10385 10377 10369 10360 10352 10343 10334 10325 10318 10311 10302 10294 10286 10278 10270 10262 10253 10246 10239 10232 10225 10218 10210 10204 10197 10192 10189 10186 10184 10180 10176 10172 10170 10169 10169 10172 10174 10176 10180 10183 10187 10191 10196 10200 10206 10212 10219 10227 10234 10240 10246 10255 10265 10272 10278 10285 10293 10302 10316 10329 10340 10351 10359 10367 10379 10388 10396 10405 10413
10471 10468 10464 10459 10455 10449 10444 10438 10432 10426 10419 10412 10405 10398 10391 10383 10376 10368 10360 10352 10343 10334 10324 10315 10307 10300 10292 10284 10276 10269 10261 10254 10247 10239 10233 10226 10218 10211 10203 10196 10190 10184 10179 10177 10175 10172 10169 10165 10162 10160 10160 10161 10163 10166 10168 10172 10176 10179 10183 10188 10192 10198 10204 10211 10218 10224 10230 10238 10247 10254 10261 10269 10278 10288 10299 10310 10322 10333 10342 10352 10361 10369 10378 10388 10397
10467 10463 10459 10454 10449 10443 10437 10432 10426 10419 10412 10405 10398 10390 10382 10374 10366 10358 10351 10343 10334 10325 10315 10306 10297 10289 10281 10273 10266 10259 10252 10245 10238 10231 10225 10219 10212 10204 10197 10189 10182 10176 10171 10167 10165 10163 10161 10158 10155 10152 10151 10151 10152 10155 10158 10160 10164 10168 10171 10175 10179 10184 10189 10195 10201 10207 10214 10222 10229 10236 10244 10253 10262 10270 10280 10292 10303 10313 10324 10335 10343 10351 10361 10370 10378
10463 10458 10453 10448 10442 10437 10431 10425 10419 10412 10406 10398 10390 10382 10374 10366 10357 10349 10341 10333 10324 10317 10307 10297 10288 10279 10271 10263 10256 10249 10242 10235 10228 10221 10215 10209 10203 10196 10189 10183 10175 10169 10163 10159 10156 10154 10152 10150 10147 10145 10143 10142 10142 10144 10147 10149 10152 10156 10160 10163 10166 10170 10175 10180 10185 10191 10198 10206 10213 10220 10228 10237 10245 10253 10262 10274 10285 10294 10306 10317 10325 10335 10345 10353 10359
10459 10453 10447 10442 10436 10430 10424 10417 10411 10405 10398 10390 10382 10373 10365 10357 10348 10339 10332 10323 10314 10307 10299 10289 10280 10270 10262 10254 10246 10239 10233 10225 10218 10212 10205 10199 10194 10188 10182 10175 10169 10162 10156 10151 10147 10144 10143 10141 10140 10137 10135 10134 10133 10134 10135 10138 10140 10144 10147 10151 10154 10158 10162 10166 10171 10175 10182 10190 10197 10205 10213 10220 10229 10237 10245 10255 10267 10277 10287 10296 10307 10318 10329 10337 10342
10454 10448 10442 10436 10429 10423 10417 10410 10403 10396 10389 10381 10373 10365 10356 10348 10339 10330 10322 10314 10304 10296 10289 10281 10272 10262 10254 10246 10237 10229 10223 10216 10209 10203 10196 10190 10185 10179 10173 10168 10162 10156 10150 10145 10140 10136 10133 10132 10131 10129 10127 10126 10125 10124 10125 10126 10129 10132 10135 10139 10142 10146 10149 10153 10157 10161 10167 10174 10181 10189 10197 10204 10212 10221 10229 10238 10248 10259 10269 10277 10289 10300 10310 10320 10328
10448 10442 10436 10430 10423 10416 10410 10402 10394 10387 10379 10372 10365 10357 10348 10340 10331 10321 10313 10305 10295 10286 10279 10272 10264 10255 10245 10237 10229 10221 10214 10207 10200 10194 10187 10181 10176 10170 10165 10159 10154 10149 10143 10138 10133 10128 10125 10122 10121 10120 10119 10118 10117 10116 10115 10116 10117 10120 10123 10126 10130 10133 10137 10140 10144 10147 10152 10158 10165 10173 10181 10188 10195 10204 10213 10222 10231 10242 10252 10260 10269 10281 10293 10303 10313
10441 10436 10430 10423 10416 10409 10401 10394 10386 10378 10371 10363 10356 10348 10340 10331 10323 10313 10304 10296 10287 10278 10270 10263 10255 10247 10237 10228 10221 10213 10205 10198 10191 10185 10178 10172 10167 10162 10156 10151 10146 10141 10136 10131 10126 10122 10118 10115 10112 10111 10110 10109 10108 10107 10106 10106 10106 10108 10111 10114 10117 10121 10124 10128 10130 10133 10137 10143 10150 10157 10165 10172 10179 10187 10196 10205 10214 10224 10235 10243 10250 10262 10277 10287 10294
10435 10429 10423 10416 10409 10401 10394 10386 10378 10370 10362 10354 10347 10339 10331 10322 10314 10304 10295 10287 10280 10271 10262 10254 10246 10238 10230 10220 10212 10204 10196 10189 10182 10176 10169 10163 10158 10153 10148 10142 10138 10133 10128 10123 10119 10115 10111 10108 10104 10102 10101 10100 10099 10099 10098 10097 10097 10097 10099 10102 10105 10108 10112 10115 10118 10120 10124 10129 10134 10141 10149 10156 10164 10171 10179 10187 10197 10206 10216 10226 10234 10242 10257 10270 10277
10428 10422 10415 10409 10401 10394 10387 10379 10371 10363 10354 10346 10338 10331 10322 10313 10305 10296 10287 10279 10272 10263 10254 10245 10237 10229 10221 10212 10203 10195 10188 10180 10173 10167 10160 10154 10149 10145 10140 10134 10130 10126 10121 10116 10111 10107 10103 10100 10097 10094 10092 10090 10090 10090 10089 10088 10088 10088 10088 10090 10092 10096 10099 10102 10105 10109 10112 10116 10121 10127 10134 10141 10148 10155 10163 10171 10180 10189 10198 10208 10217 10223 10236 10252 10260
10422 10415 10408 10401 10394 10387 10379 10371 10363 10355 10347 10339 10330 10322 10314 10305 10296 10287 10279 10271 10263 10254 10245 10237 10228 10219 10211 10204 10195 10186 10179 10172 10164 10158 10151 10145 10140 10136 10131 10126 10121 10117 10114 10109 10104 10100 10096 10093 10090 10086 10083 10082 10080 10080 10080 10080 10079 10079 10079 10079 10081 10083 10086 10090 10093 10097 10100 10104 10108 10113 10119 10125 10133 10140 10147 10155 10162 10172 10181 10190 10199 10207 10217 10231 10241
10416 10409 10402 10394 10387 10379 10372 10363 10355 10347 10339 10331 10322 10314 10305 10296 10287 10278 10270 10262 10254 10245 10236 10228 10219 10210 10201 10194 10187 10178 10170 10163 10156 10149 10143 10137 10131 10127 10122 10118 10113 10109 10105 10102 10097 10093 10089 10085 10082 10079 10076 10073 10072 10070 10070 10070 10070 10070 10069 10069 10070 10071 10074 10077 10081 10084 10088 10092 10096 10100 10105 10110 10117 10125 10132 10140 10147 10155 10165 10173 10182 10191 10199 10209 10221
10409 10403 10396 10388 10380 10372 10364 10356 10347 10339 10331 10322 10314 10305 10296 10287 10278 10270 10261 10252 10244 10235 10227 10218 10209 10201 10192 10184 10177 10170 10162 10154 10148 10141 10135 10129 10123 10119 10114 10109 10105 10100 10096 10093 10090 10086 10082 10078 10075 10072 10069 10066 10064 10062 10061 10060 10060 10060 10060 10060 10060 10061 10062 10065 10068 10071 10075 10079 10083 10087 10091 10096 10102 10109 10117 10125 10132 10140 10148 10157 10165 10174 10182 10190 10200
10401 10395 10388 10380 10372 10364 10356 10347 10338 10330 10322 10314 10305 10296 10287 10278 10270 10261 10252 10242 10234 10225 10216 10208 10199 10191 10183 10175 10168 10161 10154 10146 10140 10133 10127 10121 10116 10111 10106 10101 10097 10092 10087 10084 10082 10078 10074 10071 10067 10065 10062 10059 10056 10054 10053 10051 10050 10051 10051 10050 10051 10051 10052 10054 10056 10059 10062 10066 10070 10074 10078 10082 10087 10095 10103 10110 10118 10125 10132 10140 10149 10157 10165 10172 10181
10394 10387 10379 10371 10363 10355 10346 10338 10330 10321 10313 10305 10296 10287 10279 10270 10261 10252 10243 10234 10225 10216 10206 10197 10190 10182 10174 10166 10159 10152 10145 10138 10132 10125 10119 10113 10107 10103 10098 10093 10089 10084 10079 10076 10073 10070 10067 10063 10059 10057 10054 10052 10049 10047 10045 10043 10042 10041 10041 10041 10041 10041 10043 10044 10045 10047 10050 10053 10057 10062 10066 10069 10074 10081 10089 10096 10103 10110 10116 10124 10132 10141 10148 10156 10163
10386 10378 10371 10363 10354 10346 10337 10330 10322 10314 10305 10296 10287 10279 10271 10262 10252 10242 10234 10224 10216 10207 10197 10188 10180 10172 10164 10157 10149 10143 10136 10130 10124 10117 10111 10104 10099 10094 10090 10086 10081 10077 10072 10067 10064 10061 10058 10055 10051 10048 10046 10044 10042 10039 10037 10035 10034 10033 10032 10032 10032 10032 10033 10034 10035 10036 10038 10041 10044 10049 10053 10057 10062 10068 10075 10082 10088 10094 10101 10108 10115 10124 10132 10140 10147
10376 10368 10361 10354 10346 10338 10330 10322 10314 10306 10297 10289 10281 10273 10263 10253 10243 10233 10224 10215 10206 10197 10188 10179 10170 10163 10155 10148 10140 10133 10127 10121 10115 10109 10103 10096 10091 10086 10082 10078 10074 10069 10065 10060 10057 10053 10050 10047 10044 10040 10038 10035 10034 10032 10029 10027 10026 10025 10024 10023 10023 10023 10023 10024 10025 10026 10027 10029 10033 10036 10041 10046 10050 10056 10062 10068 10073 10079 10086 10092 10099 10107 10115 10123 10131
10367 10360 10352 10345 10337 10329 10321 10314 10306 10298 10291 10283 10274 10266 10256 10244 10234 10224 10215 10205 10196 10187 10178 10170 10161 10153 10146 10139 10131 10125 10118 10112 10106 10100 10094 10088 10083 10078 10074 10070 10066 10062 10057 10053 10049 10046 10042 10039 10036 10033 10030 10027 10025 10023 10021 10019 10017 10016 10015 10015 10015 10015 10014 10014 10015 10016 10017 10019 10021 10024 10029 10033 10038 10043 10048 10054 10059 10064 10070 10076 10083 10090 10098 10106 10114
10360 10352 10344 10336 10327 10319 10312 10305 10298 10291 10283 10275 10266 10257 10246 10235 10224 10215 10206 10196 10186 10178 10169 10160 10152 10144 10137 10130 10122 10116 10110 10104 10097 10091 10085 10079 10075 10070 10066 10062 10058 10054 10050 10045 10042 10038 10035 10031 10028 10025 10022 10019 10017 10015 10014 10012 10010 10008 10007 10006 10006 10006 10006 10006 10005 10006 10007 10009 10011 10014 10017 10021 10025 10030 10036 10041 10046 10051 10056 10062 10068 10074 10082 10090 10097
10354 10345 10337 10328 10320 10311 10304 10297 10290 10282 10273 10264 10255 10246 10236 10226 10215 10205 10197 10187 10178 10169 10160 10151 10143 10135 10128 10121 10114 10107 10101 10095 10089 10083 10076 10071 10066 10062 10057 10054 10050 10046 10042 10038 10034 10031 10028 10024 10021 10018 10015 10012 10009 10008 10006 10004 10002 10000 9999 9998 9997 9997 9998 9998 9997 9997 9998 9999 10001 10004 10006 10009 10013 10018 10023 10028 10034 10039 10043 10048 10054 10060 10067 10074 10081
10347 10339 10330 10322 10313 10305 10296 10288 10279 10270 10262 10253 10244 10234 10226 10216 10206 10196 10187 10178 10169 10160 10151 10142 10134 10126 10119 10112 10105 10098 10092 10086 10080 10074 10068 10063 10058 10053 10049 10045 10042 10039 10034 10031 10027 10024 10021 10017 10014 10011 10007 10004 10002 10000 9998 9997 9995 9993 9991 9990 9989 9989 9989 9989 9989 9989 9989 9990 9992 9994 9996 9998 10001 10006 10011 10016 10021 10026 10030 10035 10040 10045 10052 10059 10065
10339 10331 10323 10314 10306 10296 10286 10277 10267 10258 10250 10242 10233 10224 10215 10206 10196 10187 10178 10169 10161 10152 10143 10134 10125 10117 10110 10103 10096 10089 10083 10077 10071 10065 10059 10054 10049 10045 10041 10037 10034 10031 10027 10023 10020 10017 10013 10010 10007 10004 10001 9998 9995 9992 9991 9989 9988 9986 9984 9983 9982 9981 9980 9980 9981 9981 9981 9982 9983 9984 9986 9988 9990 9994 9999 10003 10008 10013 10017 10022 10026 10031 10037 10044 10049
10328 10319 10312 10305 10297 10287 10277 10267 10257 10249 10240 10232 10224 10215 10205 10196 10186 10177 10168 10159 10151 10143 10134 10125 10116 10107 10100 10094 10087 10080 10073 10068 10063 10057 10051 10046 10041 10037 10033 10029 10026 10023 10019 10016 10012 10009 10006 10003 10000 9997 9994 9991 9988 9985 9983 9981 9980 9979 9977 9975 9974 9973 9972 9972 9972 9973 9973 9973 9974 9975 9976 9978 9980 9983 9987 9991 9995 10000 10005 10009 10013 10018 10024 10030 10036
10319 10311 10302 10295 10287 10278 10269 10259 10249 10241 10233 10224 10214 10206 10196 10186 10176 10167 10159 10150 10142 10133 10124 10116 10107 10099 10091 10085 10079 10071 10065 10060 10055 10049 10043 10038 10034 10029 10025 10021 10018 10015 10012 10009 10005 10002 9999 9997 9994 9991 9987 9984 9981 9978 9976 9974 9972 9971 9970 9968 9967 9966 9965 9964 9963 9965 9966 9966 9966 9967 9967 9969 9971 9973 9976 9980 9983 9988 9992 9997 10001 10006 10011 10016 10022
10313 10305 10295 10286 10276 10267 10259 10250 10241 10232 10224 10215 10206 10196 10187 10177 10166 10157 10149 10141 10132 10123 10115 10106 10098 10090 10083 10076 10070 10063 10057 10052 10046 10040 10035 10031 10026 10022 10018 10014 10011 10008 10005 10001 9998 9995 9992 9990 9987 9984 9981 9978 9974 9972 9969 9967 9965 9964 9963 9961 9960 9958 9958 9957 9955 9956 9957 9958 9958 9958 9959 9960 9961 9963 9966 9969 9972 9976 9980 9985 9989 9994 9998 10003 10008
10304 10295 10286 10275 10266 10256 10247 10238 10230 10221 10212 10204 10196 10186 10176 10166 10156 10146 10138 10131 10123 10114 10106 10097 10088 10081 10074 10067 10061 10055 10049 10044 10038 10032 10027 10022 10018 10014 10010 10006 10003 10000 9997 9994 9991 9987 9985 9982 9980 9977 9974 9971 9968 9965 9963 9960 9958 9956 9955 9954 9952 9951 9950 9950 9948 9947 9948 9950 9950 9951 9951 9951 9953 9954 9956 9959 9962 9965 9968 9973 9977 9981 9985 9990 9994
10294 10284 10275 10266 10257 10247 10237 10227 10218 10210 10201 10192 10185 10176 10166 10156 10145 10136 10128 10120 10112 10104 10096 10087 10079 10072 10065 10058 10052 10046 10040 10035 10030 10024 10018 10013 10009 10005 10002 9999 9995 9992 9989 9986 9983 9980 9977 9975 9973 9971 9968 9965 9961 9959 9956 9954 9951 9949 9948 9947 9945 9943 9942 9942 9942 9940 9939 9940 9942 9943 9943 9943 9944 9945 9947 9949 9951 9954 9957 9961 9965 9968 9972 9977 9981
10283 10273 10264 10256 10247 10237 10227 10217 10208 10199 10190 10181 10173 10165 10156 10145 10135 10126 10118 10110 10102 10094 10086 10077 10069 10062 10056 10049 10042 10036 10031 10027 10021 10015 10010 10004 10000 9997 9994 9991 9988 9985 9981 9978 9976 9973 9970 9968 9966 9964 9962 9959 9955 9952 9950 9948 9944 9942 9941 9940 9938 9936 9934 9934 9935 9933 9932 9931 9933 9934 9935 9936 9936 9937 9938 9939 9941 9943 9946 9949 9952 9956 9959 9963 9968
10269 10260 10250 10242 10234 10224 10214 10203 10194 10186 10178 10169 10160 10152 10144 10134 10124 10116 10108 10100 10092 10084 10076 10067 10059 10053 10046 10039 10033 10027 10022 10018 10013 10007 10002 9997 9992 9988 9986 9983 9980 9977 9974 9971 9968 9966 9963 9961 9959 9957 9956 9953 9949 9946 9944 9942 9938 9935 9933 9933 9932 9930 9927 9926 9926 9926 9925 9924 9924 9925 9927 9928 9929 9929 9929 9930 9931 9933 9935 9938 9941 9944 9948 9951 9955
10256 10247 10238 10228 10220 10211 10201 10191 10180 10172 10164 10157 10149 10140 10132 10123 10113 10105 10097 10089 10082 10074 10066 10057 10050 10043 10037 10030 10024 10019 10014 10009 10005 10000 9994 9989 9985 9981 9978 9975 9972 9970 9967 9964 9961 9959 9956 9954 9952 9950 9949 9947 9943 9940 9938 9936 9933 9929 9927 9925 9925 9923 9921 9919 9918 9918 9918 9918 9917 9917 9918 9919 9920 9921 9921 9921 9922 9924 9925 9927 9930 9933 9937 9941 9944
10244 10236 10227 10217 10208 10199 10189 10179 10169 10160 10153 10146 10138 10129 10121 10112 10102 10094 10086 10078 10071 10064 10056 10048 10041 10034 10028 10022 10016 10010 10005 10001 9996 9991 9987 9982 9977 9974 9970 9967 9965 9962 9959 9956 9954 9951 9949 9947 9945 9944 9942 9940 9937 9933 9931 9930 9927 9924 9921 9918 9917 9916 9914 9913 9911 9910 9910 9910 9910 9909 9909 9910 9911 9912 9913 9913 9914 9915 9916 9918 9920 9923 9926 9929 9931
10229 10221 10211 10201 10192 10182 10172 10162 10154 10145 10137 10132 10125 10117 10110 10101 10091 10083 10075 10067 10060 10053 10046 10039 10032 10025 10018 10013 10007 10002 9996 9992 9988 9983 9979 9975 9970 9966 9963 9960 9958 9955 9952 9949 9947 9944 9942 9939 9938 9937 9936 9934 9931 9927 9925 9923 9921 9918 9915 9912 9911 9909 9907 9906 9905 9903 9902 9902 9902 9902 9902 9902 9902 9903 9904 9905 9906 9907 9907 9909 9911 9913 9915 9917 9920
10211 10202 10193 10183 10174 10164 10154 10144 10136 10128 10121 10115 10110 10104 10096 10088 10079 10070 10062 10055 10048 10041 10035 10029 10023 10016 10009 10003 9998 9993 9988 9983 9979 9975 9971 9967 9963 9959 9956 9953 9950 9948 9945 9942 9940 9937 9935 9932 9930 9929 9928 9928 9925 9921 9919 9917 9914 9912 9909 9906 9904 9903 9901 9899 9898 9896 9895 9894 9894 9894 9894 9894 9895 9895 9895 9896 9897 9898 9899 9900 9901 9903 9904 9906 9910
10195 10186 10179 10170 10162 10154 10145 10134 10124 10115 10107 10101 10096 10090 10082 10074 10066 10058 10050 10044 10037 10030 10024 10019 10013 10007 10000 9994 9989 9984 9979 9974 9971 9967 9963 9959 9955 9952 9948 9945 9943 9941 9939 9936 9933 9931 9928 9925 9923 9921 9920 9920 9918 9915 9912 9911 9908 9905 9903 9900 9898 9896 9895 9893 9891 9890 9888 9887 9886 9887 9887 9887 9887 9887 9887 9887 9888 9889 9890 9892 9892 9893 9895 9898 9902
10186 10176 10167 10160 10152 10143 10134 10124 10113 10103 10095 10088 10082 10076 10067 10060 10053 10046 10039 10033 10026 10019 10013 10008 10004 9998 9991 9985 9980 9975 9970 9966 9962 9958 9955 9951 9947 9944 9941 9937 9935 9933 9931 9929 9926 9924 9921 9917 9915 9914 9912 9912 9912 9909 9906 9904 9902 9899 9897 9894 9892 9890 9888 9886 9884 9883 9882 9880 9879 9879 9879 9879 9879 9879 9879 9879 9879 9880 9881 9883 9883 9884 9887 9890 9893
10173 10163 10154 10148 10141 10131 10121 10111 10101 10092 10083 10076 10069 10062 10053 10045 10039 10033 10028 10022 10015 10008 10002 9998 9994 9988 9981 9975 9971 9966 9961 9957 9953 9950 9946 9943 9939 9937 9933 9930 9927 9925 9924 9921 9919 9917 9914 9911 9908 9907 9905 9904 9904 9902 9900 9898 9895 9893 9890 9888 9886 9884 9882 9880 9878 9876 9875 9874 9873 9872 9872 9872 9871 9871 9871 9872 9872 9871 9872 9873 9874 9876 9878 9882 9882
10159 10148 10137 10130 10125 10117 10106 10096 10086 10076 10067 10060 10054 10048 10040 10032 10026 10020 10017 10011 10004 9996 9991 9987 9983 9978 9971 9966 9961 9957 9952 9948 9945 9941 9938 9935 9932 9929 9926 9923 9920 9917 9916 9914 9912 9910 9907 9904 9901 9899 9898 9897 9897 9896 9894 9891 9889 9887 9884 9882 9880 9878 9876 9874 9872 9870 9868 9867 9866 9865 9865 9864 9863 9863 9863 9864 9864 9864 9864 9864 9865 9867 9869 9871 9871
10147 10136 10125 10116 10110 10103 10094 10083 10072 10061 10052 10045 10039 10033 10026 10019 10013 10008 10005 9999 9992 9985 9979 9976 9973 9967 9961 9956 9952 9948 9943 9940 9936 9933 9930 9927 9924 9921 9919 9916 9912 9910 9907 9906 9904 9902 9900 9897 9894 9892 9891 9890 9890 9889 9887 9885 9883 9881 9878 9876 9874 9872 9870 9868 9866 9864 9861 9860 9859 9859 9858 9857 9856 9855 9855 9856 9856 9856 9856 9856 9856 9857 9859 9861 9862
10132 10123 10113 10103 10095 10088 10080 10070 10058 10047 10038 10031 10025 10020 10013 10006 10000 9997 9992 9987 9980 9973 9968 9965 9962 9957 9951 9947 9943 9939 9935 9931 9928 9925 9922 9919 9916 9914 9911 9908 9905 9902 9900 9898 9896 9895 9892 9890 9887 9885 9883 9883 9882 9882 9881 9880 9877 9875 9872 9870 9868 9866 9864 9862 9860 9858 9856 9853 9852 9852 9852 9851 9849 9848 9848 9848 9848 9848 9848 9848 9848 9849 9850 9852 9853
10117 10107 10097 10088 10079 10072 10065 10057 10046 10034 10024 10018 10012 10006 10001 9995 9989 9985 9980 9974 9968 9962 9957 9955 9952 9947 9942 9938 9934 9930 9926 9923 9919 9916 9914 9911 9909 9906 9904 9901 9898 9895 9893 9891 9889 9888 9886 9884 9881 9878 9876 9875 9875 9874 9874 9873 9872 9869 9867 9864 9862 9860 9858 9856 9854 9852 9850 9848 9846 9845 9845 9844 9843 9842 9840 9840 9840 9840 9841 9841 9841 9841 9842 9843 9844
10102 10091 10081 10072 10064 10056 10049 10042 10033 10020 10010 10004 9999 9992 9987 9982 9978 9973 9967 9961 9956 9951 9947 9945 9942 9937 9932 9929 9925 9922 9918 9914 9911 9908 9906 9904 9901 9899 9897 9894 9892 9889 9886 9884 9882 9881 9879 9877 9875 9872 9870 9868 9867 9867 9866 9866 9865 9863 9861 9859 9856 9854 9852 9850 9848 9846 9844 9842 9840 9839 9838 9838 9837 9836 9834 9833 9833 9833 9833 9834 9834 9834 9834 9835 9836
10089 10079 10069 10060 10052 10044 10036 10028 10020 10008 9997 9990 9984 9978 9973 9969 9965 9961 9955 9948 9943 9940 9937 9934 9931 9927 9923 9919 9916 9913 9909 9906 9903 9900 9898 9896 9894 9891 9889 9887 9885 9882 9879 9877 9875 9874 9872 9871 9869 9867 9864 9862 9860 9859 9859 9858 9857 9856 9854 9852 9850 9848 9846 9844 9842 9840 9838 9836 9834 9832 9832 9831 9831 9830 9829 9827 9826 9826 9826 9826 9826 9827 9827 9828 9828
10075 10066 10056 10047 10038 10029 10021 10014 10006 9997 9987 9978 9971 9965 9961 9957 9953 9948 9942 9936 9932 9929 9926 9923 9921 9917 9913 9910 9907 9904 9901 9898 9895 9893 9890 9888 9886 9884 9881 9879 9878 9875 9872 9870 9869 9867 9866 9864 9863 9860 9858 9856 9854 9853 9852 9851 9850 9849 9848 9846 9844 9842 9840 9838 9836 9834 9832 9830 9828 9826 9825 9825 9824 9824 9823 9822 9821 9819 9819 9819 9819 9819 9820 9821 9821
10060 10052 10043 10033 10024 10015 10007 10000 9993 9985 9976 9967 9959 9953 9949 9945 9940 9935 9930 9925 9922 9918 9915 9913 9910 9906 9903 9901 9898 9895 9892 9889 9887 9885 9883 9881 9879 9877 9874 9872 9870 9868 9866 9864 9862 9860 9859 9858 9856 9854 9852 9850 9848 9846 9845 9844 9843 9842 9841 9839 9838 9836 9835 9833 9831 9829 9826 9824 9822 9821 9819 9818 9818 9817 9817 9816 9815 9814 9813 9813 9812 9812 9813 9813 9814
10040 10034 10026 10017 10008 9999 9991 9985 9978 9970 9963 9955 9947 9941 9937 9934 9928 9923 9919 9915 9912 9909 9906 9903 9900 9897 9894 9892 9890 9887 9883 9880 9878 9877 9875 9873 9872 9869 9867 9864 9862 9861 9859 9857 9855 9854 9852 9851 9850 9847 9845 9844 9842 9840 9839 9837 9836 9835 9834 9832 9831 9830 9829 9827 9826 9823 9821 9819 9817 9815 9814 9813 9812 9811 9810 9810 9809 9808 9808 9807 9806 9806 9806 9807 9807
10024 10018 10011 10002 9993 9983 9976 9970 9963 9956 9949 9942 9936 9931 9927 9923 9917 9912 9908 9905 9902 9899 9897 9894 9891 9888 9886 9884 9881 9878 9875 9872 9870 9869 9867 9866 9864 9862 9859 9857 9855 9853 9852 9850 9849 9847 9846 9845 9843 9841 9840 9838 9836 9834 9833 9831 9830 9828 9827 9826 9824 9823 9822 9821 9820 9818 9816 9814 9811 9810 9808 9807 9806 9805 9804 9803 9803 9802 9802 9801 9801 9800 9800 9800 9800
10013 10004 9996 9987 9979 9970 9963 9957 9950 9942 9936 9930 9924 9920 9917 9912 9906 9901 9898 9895 9892 9890 9887 9884 9881 9879 9877 9875 9872 9869 9866 9864 9862 9860 9859 9858 9856 9854 9852 9850 9848 9846 9845 9843 9842 9840 9839 9838 9837 9835 9834 9832 9830 9829 9827 9825 9824 9822 9821 9820 9818 9816 9815 9814 9813 9812 9810 9808 9806 9804 9802 9801 9800 9799 9798 9797 9796 9796 9795 9795 9795 9794 9794 9794 9794